Location: City of Moscow
(46.7306°N, 116.9989°W)
Time: 02:50:41
(UTC+00:00)

Tiangong - Pass Details

Date: 18 February 2026
Orbit: 382 x 391 km, 41.5° (Epoch: 6 March)

Event Time Altitude Azimuth Distance (km) Brightness Sun altitude
Rises 01:49:44 0° 256° (WSW) 2,258 4.5 -6.4°
Reaches altitude 10° 01:51:56 10° 246° (WSW) 1,402 2.3 -6.8°
Maximum altitude 01:54:46 31° 182° (S) 702 -0.7 -7.3°
Drops below altitude 10° 01:57:36 10° 118° (ESE) 1,396 0.2 -7.7°
Enters shadow 01:58:10 - 114° (ESE) 1,606 0.5 -7.8°
